Time,TemperatureF,DewpointF,PressureIn,WindDirection,WindDirectionDegrees,WindSpeedMPH,WindSpeedGustMPH,Humidity,HourlyPrecipIn,Conditions,Clouds,dailyrainin,SoftwareType,DateUTC
2013-02-01 00:02:00,-13.5,-19.8,29.94,WNW,298,8.2,11.9,73,0.00,,,0.00,WUHU21623XXSP,2013-02-01 06:02:00,
2013-02-01 00:07:00,-13.5,-19.8,29.94,WNW,298,8.0,11.9,73,0.00,,,0.00,WUHU21623XXSP,2013-02-01 06:07:00,
2013-02-01 00:12:00,-13.5,-19.8,29.95,NW,315,6.0,11.2,73,0.00,,,0.00,WUHU21623XXSP,2013-02-01 06:12:00,
2013-02-01 00:17:00,-13.9,-20.2,29.94,NW,315,5.4,8.9,73,0.00,,,0.00,WUHU21623XXSP,2013-02-01 06:17:00,
2013-02-01 00:22:00,-14.3,-20.5,29.95,NW,315,12.8,12.8,73,0.00,,,0.00,WUHU21623XXSP,2013-02-01 06:22:00,
2013-02-01 00:27:00,-14.4,-20.7,29.95,NW,315,5.4,12.8,73,0.00,,,0.00,WUHU21623XXSP,2013-02-01 06:27:00,
2013-02-01 00:32:00,-14.6,-20.9,29.94,WNW,292,4.9,9.2,73,0.00,,,0.00,WUHU21623XXSP,2013-02-01 06:32:00,
2013-02-01 00:37:00,-14.6,-20.9,29.94,NW,315,5.4,10.3,73,0.00,,,0.00,WUHU21623XXSP,2013-02-01 06:37:00,
2013-02-01 00:42:00,-14.6,-20.9,29.95,WNW,302,7.6,13.6,73,0.00,,,0.00,WUHU21623XXSP,2013-02-01 06:42:00,
2013-02-01 00:47:00,-15.0,-21.2,29.95,WNW,292,6.0,13.6,73,0.00,,,0.00,WUHU21623XXSP,2013-02-01 06:47:00,
2013-02-01 00:52:00,-15.2,-21.4,29.95,NW,310,4.8,11.2,73,0.00,,,0.00,WUHU21623XXSP,2013-02-01 06:52:00,
2013-02-01 00:57:00,-15.2,-21.4,29.95,WNW,292,1.9,11.2,73,0.00,,,0.00,WUHU21623XXSP,2013-02-01 06:57:00,
2013-02-01 01:02:00,-15.2,-21.4,29.95,NW,315,6.9,8.3,73,0.00,,,0.00,WUHU21623XXSP,2013-02-01 07:02:00,
2013-02-01 01:07:00,-15.5,-21.8,29.95,West,279,3.0,8.3,73,0.00,,,0.00,WUHU21623XXSP,2013-02-01 07:07:00,
2013-02-01 01:12:00,-15.9,-21.9,29.95,WNW,292,5.4,8.1,73,0.00,,,0.00,WUHU21623XXSP,2013-02-01 07:12:00,
2013-02-01 01:17:00,-16.1,-22.1,29.95,WNW,303,4.4,8.1,73,0.00,,,0.00,WUHU21623XXSP,2013-02-01 07:17:00,
2013-02-01 01:22:00,-15.9,-21.9,29.95,WNW,286,3.9,7.4,74,0.00,,,0.00,WUHU21623XXSP,2013-02-01 07:22:00,
2013-02-01 01:27:00,-15.9,-21.9,29.95,NW,315,6.0,6.9,74,0.00,,,0.00,WUHU21623XXSP,2013-02-01 07:27:00,
2013-02-01 01:32:00,-15.2,-21.2,29.95,NW,315,8.7,8.7,74,0.00,,,0.00,WUHU21623XXSP,2013-02-01 07:32:00,
2013-02-01 01:37:00,-15.7,-21.7,29.95,NW,315,2.7,8.7,74,0.00,,,0.00,WUHU21623XXSP,2013-02-01 07:37:00,
2013-02-01 01:42:00,-15.7,-22.0,29.96,WNW,292,3.7,6.5,73,0.00,,,0.00,WUHU21623XXSP,2013-02-01 07:42:00,
2013-02-01 01:47:00,-16.1,-22.1,29.96,WNW,290,4.1,8.7,73,0.00,,,0.00,WUHU21623XXSP,2013-02-01 07:47:00,
2013-02-01 01:52:00,-16.8,-23.1,29.96,WNW,295,3.4,9.8,72,0.00,,,0.00,WUHU21623XXSP,2013-02-01 07:52:00,
2013-02-01 01:57:00,-16.8,-23.1,29.96,WNW,292,3.4,9.8,72,0.00,,,0.00,WUHU21623XXSP,2013-02-01 07:57:00,
2013-02-01 02:02:00,-16.8,-23.1,29.96,NW,315,7.4,7.4,72,0.00,,,0.00,WUHU21623XXSP,2013-02-01 08:02:00,
2013-02-01 02:07:00,-16.8,-22.8,29.96,WNW,284,3.2,11.0,73,0.00,,,0.00,WUHU21623XXSP,2013-02-01 08:07:00,
2013-02-01 02:12:00,-17.0,-23.3,29.96,WNW,292,3.6,11.0,72,0.00,,,0.00,WUHU21623XXSP,2013-02-01 08:12:00,
2013-02-01 02:17:00,-17.5,-23.7,29.97,WNW,294,3.7,6.5,72,0.00,,,0.00,WUHU21623XXSP,2013-02-01 08:17:00,
2013-02-01 02:22:00,-17.7,-23.9,29.97,West,270,4.7,8.1,72,0.00,,,0.00,WUHU21623XXSP,2013-02-01 08:22:00,
2013-02-01 02:27:00,-17.9,-24.1,29.97,WNW,289,4.7,9.4,72,0.00,,,0.00,WUHU21623XXSP,2013-02-01 08:27:00,
2013-02-01 02:32:00,-17.9,-24.1,29.97,WNW,290,4.7,9.4,72,0.00,,,0.00,WUHU21623XXSP,2013-02-01 08:32:00,
2013-02-01 02:37:00,-17.9,-24.1,29.97,West,270,1.6,7.6,72,0.00,,,0.00,WUHU21623XXSP,2013-02-01 08:37:00,
2013-02-01 02:42:00,-18.2,-24.4,29.97,WNW,292,2.7,6.3,72,0.00,,,0.00,WUHU21623XXSP,2013-02-01 08:42:00,
2013-02-01 02:47:00,-18.2,-24.2,29.97,WNW,292,2.0,5.4,73,0.00,,,0.00,WUHU21623XXSP,2013-02-01 08:47:00,
2013-02-01 02:52:00,-18.6,-24.5,29.97,WNW,292,4.0,5.6,73,0.00,,,0.00,WUHU21623XXSP,2013-02-01 08:52:00,
2013-02-01 02:57:00,-18.8,-25.0,29.97,WNW,292,3.7,6.0,72,0.00,,,0.00,WUHU21623XXSP,2013-02-01 08:57:00,
2013-02-01 03:02:00,-18.8,-24.7,29.97,NW,320,2.5,6.0,73,0.00,,,0.00,WUHU21623XXSP,2013-02-01 09:02:00,
2013-02-01 03:07:00,-18.8,-24.7,29.97,WNW,283,2.9,6.5,73,0.00,,,0.00,WUHU21623XXSP,2013-02-01 09:07:00,
2013-02-01 03:12:00,-18.6,-24.5,29.97,West,270,1.6,6.5,73,0.00,,,0.00,WUHU21623XXSP,2013-02-01 09:12:00,
2013-02-01 03:17:00,-19.1,-25.0,29.97,WSW,247,3.6,7.2,73,0.00,,,0.00,WUHU21623XXSP,2013-02-01 09:17:00,
2013-02-01 03:22:00,-19.3,-25.2,29.97,WNW,300,4.1,8.9,73,0.00,,,0.00,WUHU21623XXSP,2013-02-01 09:22:00,
2013-02-01 03:27:00,-19.3,-25.2,29.97,WSW,247,5.6,8.9,73,0.00,,,0.00,WUHU21623XXSP,2013-02-01 09:27:00,
2013-02-01 03:32:00,-19.5,-25.4,29.98,WNW,293,3.1,5.6,73,0.00,,,0.00,WUHU21623XXSP,2013-02-01 09:32:00,
2013-02-01 03:37:00,-19.7,-25.6,29.97,WNW,292,3.4,5.6,73,0.00,,,0.00,WUHU21623XXSP,2013-02-01 09:37:00,
2013-02-01 03:42:00,-19.7,-25.9,29.97,WNW,286,3.6,6.7,72,0.00,,,0.00,WUHU21623XXSP,2013-02-01 09:42:00,
2013-02-01 03:47:00,-19.8,-26.0,29.97,WSW,247,3.8,6.7,72,0.00,,,0.00,WUHU21623XXSP,2013-02-01 09:47:00,
2013-02-01 03:52:00,-19.5,-25.4,29.98,West,274,2.4,5.6,73,0.00,,,0.00,WUHU21623XXSP,2013-02-01 09:52:00,
2013-02-01 03:57:00,-18.8,-24.0,29.98,West,270,2.3,4.7,76,0.00,,,0.00,WUHU21623XXSP,2013-02-01 09:57:00,
2013-02-01 04:02:00,-19.1,-24.8,29.98,West,280,2.0,4.5,74,0.00,,,0.00,WUHU21623XXSP,2013-02-01 10:02:00,
2013-02-01 04:07:00,-19.3,-25.0,29.98,West,275,2.6,5.4,74,0.00,,,0.00,WUHU21623XXSP,2013-02-01 10:07:00,
2013-02-01 04:12:00,-20.0,-25.9,29.98,West,262,3.5,6.3,73,0.00,,,0.00,WUHU21623XXSP,2013-02-01 10:12:00,
2013-02-01 04:17:00,-20.2,-26.1,29.98,West,270,3.6,6.3,73,0.00,,,0.00,WUHU21623XXSP,2013-02-01 10:17:00,
2013-02-01 04:22:00,-20.2,-26.1,29.98,West,266,2.8,5.6,73,0.00,,,0.00,WUHU21623XXSP,2013-02-01 10:22:00,
2013-02-01 04:27:00,-20.4,-26.5,29.98,West,270,2.9,5.8,72,0.00,,,0.00,WUHU21623XXSP,2013-02-01 10:27:00,
2013-02-01 04:32:00,-20.7,-26.8,29.98,WNW,297,3.5,11.9,72,0.00,,,0.00,WUHU21623XXSP,2013-02-01 10:32:00,
2013-02-01 04:37:00,-21.1,-27.2,29.98,NW,315,5.8,11.9,72,0.00,,,0.00,WUHU21623XXSP,2013-02-01 10:37:00,
2013-02-01 04:42:00,-21.3,-27.4,29.98,West,278,2.8,6.7,72,0.00,,,0.00,WUHU21623XXSP,2013-02-01 10:42:00,
2013-02-01 04:47:00,-21.3,-27.4,29.98,WNW,289,3.4,6.7,72,0.00,,,0.00,WUHU21623XXSP,2013-02-01 10:47:00,
2013-02-01 04:52:00,-21.3,-27.4,29.97,West,270,1.8,4.9,72,0.00,,,0.00,WUHU21623XXSP,2013-02-01 10:52:00,
2013-02-01 04:57:00,-21.6,-27.7,29.97,West,270,2.2,4.9,72,0.00,,,0.00,WUHU21623XXSP,2013-02-01 10:57:00,
2013-02-01 05:02:00,-21.8,-27.9,29.98,West,270,2.9,4.9,72,0.00,,,0.00,WUHU21623XXSP,2013-02-01 11:02:00,
2013-02-01 05:07:00,-21.8,-27.9,29.98,West,274,2.7,4.7,72,0.00,,,0.00,WUHU21623XXSP,2013-02-01 11:07:00,
2013-02-01 05:12:00,-21.8,-27.9,29.98,West,266,2.0,4.5,72,0.00,,,0.00,WUHU21623XXSP,2013-02-01 11:12:00,
2013-02-01 05:17:00,-21.8,-27.9,29.98,West,270,2.0,3.1,72,0.00,,,0.00,WUHU21623XXSP,2013-02-01 11:17:00,
2013-02-01 05:22:00,-21.8,-27.9,29.97,West,270,2.2,3.1,72,0.00,,,0.00,WUHU21623XXSP,2013-02-01 11:22:00,
2013-02-01 05:27:00,-21.8,-27.9,29.97,West,270,0.0,2.5,72,0.00,,,0.00,WUHU21623XXSP,2013-02-01 11:27:00,
2013-02-01 05:32:00,-21.8,-27.9,29.97,West,270,0.0,2.5,72,0.00,,,0.00,WUHU21623XXSP,2013-02-01 11:32:00,
2013-02-01 06:16:00,-21.8,-27.6,29.98,West,270,0.9,0.9,73,0.00,,,0.00,WUHU21623XXSP,2013-02-01 12:16:00,
2013-02-01 06:21:00,-21.5,-27.1,29.98,West,270,1.8,2.7,74,0.00,,,0.00,WUHU21623XXSP,2013-02-01 12:21:00,
2013-02-01 06:26:00,-20.9,-26.5,29.98,West,270,1.2,2.9,74,0.00,,,0.00,WUHU21623XXSP,2013-02-01 12:26:00,
2013-02-01 06:31:00,-21.8,-27.6,29.99,West,270,0.0,2.9,73,0.00,,,0.00,WUHU21623XXSP,2013-02-01 12:31:00,
2013-02-01 06:36:00,-21.8,-27.6,29.98,West,270,2.0,2.0,73,0.00,,,0.00,WUHU21623XXSP,2013-02-01 12:36:00,
2013-02-01 06:41:00,-21.8,-27.6,29.98,West,270,2.0,2.0,73,0.00,,,0.00,WUHU21623XXSP,2013-02-01 12:41:00,
2013-02-01 09:13:00,-21.8,-27.9,30.00,West,270,2.2,2.2,72,0.00,,,0.00,WUHU21623XXSP,2013-02-01 15:13:00,
2013-02-01 09:18:00,-21.8,-27.9,30.00,West,270,2.1,3.4,72,0.00,,,0.00,WUHU21623XXSP,2013-02-01 15:18:00,
2013-02-01 09:23:00,-21.5,-27.6,30.00,West,270,2.0,4.9,72,0.00,,,0.00,WUHU21623XXSP,2013-02-01 15:23:00,
2013-02-01 09:28:00,-21.3,-27.4,30.00,West,270,2.3,4.9,72,0.00,,,0.00,WUHU21623XXSP,2013-02-01 15:28:00,
2013-02-01 09:33:00,-20.6,-26.7,30.00,West,270,2.5,4.5,72,0.00,,,0.00,WUHU21623XXSP,2013-02-01 15:33:00,
2013-02-01 09:38:00,-20.2,-26.3,30.00,West,270,2.1,3.6,72,0.00,,,0.00,WUHU21623XXSP,2013-02-01 15:38:00,
2013-02-01 09:43:00,-20.0,-26.2,30.00,West,270,2.9,3.6,72,0.00,,,0.00,WUHU21623XXSP,2013-02-01 15:43:00,
2013-02-01 09:48:00,-19.7,-25.9,30.00,West,270,1.8,4.7,72,0.00,,,0.00,WUHU21623XXSP,2013-02-01 15:48:00,
2013-02-01 09:53:00,-19.1,-25.0,29.99,West,270,4.3,4.7,73,0.00,,,0.00,WUHU21623XXSP,2013-02-01 15:53:00,
2013-02-01 09:58:00,-18.2,-24.2,29.99,West,270,1.6,4.9,73,0.00,,,0.00,WUHU21623XXSP,2013-02-01 15:58:00,
2013-02-01 10:03:00,-17.7,-23.7,29.99,West,270,1.1,4.9,73,0.00,,,0.00,WUHU21623XXSP,2013-02-01 16:03:00,
2013-02-01 10:08:00,-17.1,-23.1,29.99,West,270,2.8,3.6,73,0.00,,,0.00,WUHU21623XXSP,2013-02-01 16:08:00,
2013-02-01 10:13:00,-16.8,-22.6,29.99,West,270,1.3,4.3,74,0.00,,,0.00,WUHU21623XXSP,2013-02-01 16:13:00,
2013-02-01 10:18:00,-16.2,-22.0,29.99,West,270,1.4,4.3,74,0.00,,,0.00,WUHU21623XXSP,2013-02-01 16:18:00,
2013-02-01 10:23:00,-16.2,-22.2,29.99,West,270,1.3,3.4,73,0.00,,,0.00,WUHU21623XXSP,2013-02-01 16:23:00,
2013-02-01 10:28:00,-15.5,-21.5,29.99,West,270,4.3,4.3,74,0.00,,,0.00,WUHU21623XXSP,2013-02-01 16:28:00,
2013-02-01 10:33:00,-15.2,-21.4,29.99,West,270,2.0,4.3,73,0.00,,,0.00,WUHU21623XXSP,2013-02-01 16:33:00,
2013-02-01 10:38:00,-14.6,-20.9,29.99,West,270,1.8,3.4,73,0.00,,,0.00,WUHU21623XXSP,2013-02-01 16:38:00,
2013-02-01 10:43:00,-13.9,-20.2,29.99,WSW,247,2.7,3.8,73,0.00,,,0.00,WUHU21623XXSP,2013-02-01 16:43:00,
2013-02-01 10:48:00,-13.7,-20.5,29.99,West,270,2.2,3.8,71,0.00,,,0.00,WUHU21623XXSP,2013-02-01 16:48:00,
2013-02-01 10:53:00,-14.1,-20.8,29.99,WSW,252,2.1,5.6,71,0.00,,,0.00,WUHU21623XXSP,2013-02-01 16:53:00,
2013-02-01 10:58:00,-12.8,-19.9,29.99,West,277,3.0,5.6,70,0.00,,,0.00,WUHU21623XXSP,2013-02-01 16:58:00,
2013-02-01 11:03:00,-12.5,-19.5,29.98,WSW,257,3.0,4.7,70,0.00,,,0.00,WUHU21623XXSP,2013-02-01 17:03:00,
2013-02-01 11:08:00,-12.5,-19.8,29.98,West,270,2.4,4.9,69,0.00,,,0.00,WUHU21623XXSP,2013-02-01 17:08:00,
2013-02-01 11:13:00,-11.9,-19.6,29.98,WNW,290,2.0,4.9,68,0.00,,,0.00,WUHU21623XXSP,2013-02-01 17:13:00,
2013-02-01 11:18:00,-11.4,-19.4,29.98,West,270,1.6,4.5,67,0.00,,,0.00,WUHU21623XXSP,2013-02-01 17:18:00,
2013-02-01 11:23:00,-11.0,-19.4,29.98,West,273,2.2,3.6,66,0.00,,,0.00,WUHU21623XXSP,2013-02-01 17:23:00,
2013-02-01 11:28:00,-11.6,-20.2,29.97,West,270,5.8,5.8,65,0.00,,,0.00,WUHU21623XXSP,2013-02-01 17:28:00,
2013-02-01 11:33:00,-11.4,-20.3,29.98,West,280,3.0,5.8,64,0.00,,,0.00,WUHU21623XXSP,2013-02-01 17:33:00,
2013-02-01 11:38:00,-11.0,-19.7,29.97,WSW,249,1.8,5.8,65,0.00,,,0.00,WUHU21623XXSP,2013-02-01 17:38:00,
2013-02-01 11:44:00,-11.4,-20.6,29.97,WSW,254,4.2,6.0,63,0.00,,,0.00,WUHU21623XXSP,2013-02-01 17:44:00,
2013-02-01 11:49:00,-11.0,-20.0,29.97,WSW,247,4.0,6.0,64,0.00,,,0.00,WUHU21623XXSP,2013-02-01 17:49:00,
2013-02-01 11:54:00,-11.0,-19.7,29.97,West,270,2.9,5.6,65,0.00,,,0.00,WUHU21623XXSP,2013-02-01 17:54:00,
2013-02-01 11:59:00,-11.0,-20.0,29.97,West,270,3.8,5.6,64,0.00,,,0.00,WUHU21623XXSP,2013-02-01 17:59:00,
2013-02-01 12:04:00,-11.0,-20.0,29.96,West,263,3.3,6.9,64,0.00,,,0.00,WUHU21623XXSP,2013-02-01 18:04:00,
2013-02-01 12:09:00,-10.7,-19.9,29.96,West,270,4.7,6.9,63,0.00,,,0.00,WUHU21623XXSP,2013-02-01 18:09:00,
2013-02-01 12:14:00,-11.0,-20.5,29.96,WSW,240,3.0,6.5,62,0.00,,,0.00,WUHU21623XXSP,2013-02-01 18:14:00,
2013-02-01 12:19:00,-10.1,-19.1,29.96,West,270,4.3,6.5,64,0.00,,,0.00,WUHU21623XXSP,2013-02-01 18:19:00,
2013-02-01 12:24:00,-9.9,-19.2,29.96,West,270,2.9,5.8,63,0.00,,,0.00,WUHU21623XXSP,2013-02-01 18:24:00,
2013-02-01 12:29:00,-9.8,-19.4,29.96,West,270,2.7,5.8,62,0.00,,,0.00,WUHU21623XXSP,2013-02-01 18:29:00,
2013-02-01 12:34:00,-9.8,-19.4,29.95,West,270,2.2,5.8,62,0.00,,,0.00,WUHU21623XXSP,2013-02-01 18:34:00,
2013-02-01 12:39:00,-9.0,-19.0,29.95,West,270,2.5,6.0,61,0.00,,,0.00,WUHU21623XXSP,2013-02-01 18:39:00,
2013-02-01 12:44:00,-8.9,-18.5,29.95,West,259,2.3,6.0,62,0.00,,,0.00,WUHU21623XXSP,2013-02-01 18:44:00,
2013-02-01 12:49:00,-8.9,-19.1,29.95,WSW,250,2.1,4.3,60,0.00,,,0.00,WUHU21623XXSP,2013-02-01 18:49:00,
2013-02-01 12:54:00,-8.7,-18.3,29.94,West,270,2.7,4.3,62,0.00,,,0.00,WUHU21623XXSP,2013-02-01 18:54:00,
2013-02-01 12:59:00,-8.5,-17.8,29.94,West,270,1.9,7.8,63,0.00,,,0.00,WUHU21623XXSP,2013-02-01 18:59:00,
2013-02-01 13:04:00,-8.3,-18.0,29.94,West,270,1.8,7.8,62,0.00,,,0.00,WUHU21623XXSP,2013-02-01 19:04:00,
2013-02-01 13:09:00,-8.3,-18.0,29.93,West,270,4.3,4.5,62,0.00,,,0.00,WUHU21623XXSP,2013-02-01 19:09:00,
2013-02-01 13:15:00,-8.7,-18.0,29.93,West,271,2.0,4.9,63,0.00,,,0.00,WUHU21623XXSP,2013-02-01 19:15:00,
2013-02-01 13:20:00,-8.0,-17.9,29.93,West,270,3.1,5.1,61,0.00,,,0.00,WUHU21623XXSP,2013-02-01 19:20:00,
2013-02-01 13:24:00,-8.0,-17.9,29.93,West,270,4.3,5.1,61,0.00,,,0.00,WUHU21623XXSP,2013-02-01 19:24:00,
2013-02-01 13:30:00,-8.0,-18.2,29.93,West,270,2.8,4.9,60,0.00,,,0.00,WUHU21623XXSP,2013-02-01 19:30:00,
2013-02-01 13:35:00,-8.3,-18.0,29.92,WSW,247,5.8,5.8,62,0.00,,,0.00,WUHU21623XXSP,2013-02-01 19:35:00,
2013-02-01 13:40:00,-8.3,-18.3,29.92,WSW,247,2.7,5.8,61,0.00,,,0.00,WUHU21623XXSP,2013-02-01 19:40:00,
2013-02-01 13:45:00,-7.8,-17.4,29.92,WNW,292,3.8,5.4,62,0.00,,,0.00,WUHU21623XXSP,2013-02-01 19:45:00,
2013-02-01 13:50:00,-7.4,-17.1,29.92,NW,315,6.3,6.3,62,0.00,,,0.00,WUHU21623XXSP,2013-02-01 19:50:00,
2013-02-01 13:55:00,-7.8,-17.7,29.92,NW,312,3.3,6.3,61,0.00,,,0.00,WUHU21623XXSP,2013-02-01 19:55:00,
2013-02-01 14:00:00,-7.1,-16.8,29.92,NW,315,0.3,5.6,62,0.00,,,0.00,WUHU21623XXSP,2013-02-01 20:00:00,
2013-02-01 14:05:00,-7.8,-17.7,29.92,WNW,292,3.6,5.6,61,0.00,,,0.00,WUHU21623XXSP,2013-02-01 20:05:00,
2013-02-01 14:10:00,-7.4,-17.1,29.92,NW,315,3.4,4.9,62,0.00,,,0.00,WUHU21623XXSP,2013-02-01 20:10:00,
2013-02-01 14:15:00,-7.8,-17.7,29.92,WNW,292,0.3,4.9,61,0.00,,,0.00,WUHU21623XXSP,2013-02-01 20:15:00,
2013-02-01 14:20:00,-7.4,-17.4,29.92,WNW,292,1.3,4.0,61,0.00,,,0.00,WUHU21623XXSP,2013-02-01 20:20:00,
2013-02-01 14:25:00,-7.4,-17.4,29.92,WNW,291,1.3,4.0,61,0.00,,,0.00,WUHU21623XXSP,2013-02-01 20:25:00,
2013-02-01 14:30:00,-7.2,-17.2,29.92,WNW,292,3.4,4.0,61,0.00,,,0.00,WUHU21623XXSP,2013-02-01 20:30:00,
2013-02-01 14:35:00,-7.4,-17.4,29.92,WSW,247,3.6,3.8,61,0.00,,,0.00,WUHU21623XXSP,2013-02-01 20:35:00,
2013-02-01 14:40:00,-6.5,-16.6,29.91,WNW,292,1.8,5.1,61,0.00,,,0.00,WUHU21623XXSP,2013-02-01 20:40:00,
2013-02-01 14:45:00,-6.7,-17.1,29.92,WSW,247,1.3,5.1,60,0.00,,,0.00,WUHU21623XXSP,2013-02-01 20:45:00,
2013-02-01 14:50:00,-6.7,-17.1,29.91,WSW,249,2.1,4.3,60,0.00,,,0.00,WUHU21623XXSP,2013-02-01 20:50:00,
2013-02-01 14:55:00,-6.7,-17.1,29.91,NW,313,4.2,5.6,60,0.00,,,0.00,WUHU21623XXSP,2013-02-01 20:55:00,
2013-02-01 15:00:00,-6.3,-16.4,29.91,NW,315,4.5,5.6,61,0.00,,,0.00,WUHU21623XXSP,2013-02-01 21:00:00,
2013-02-01 15:05:00,-6.0,-16.4,29.91,NW,315,3.8,6.3,60,0.00,,,0.00,WUHU21623XXSP,2013-02-01 21:05:00,
2013-02-01 15:10:00,-6.0,-16.4,29.91,NW,315,6.7,6.7,60,0.00,,,0.00,WUHU21623XXSP,2013-02-01 21:10:00,
2013-02-01 15:15:00,-6.0,-16.4,29.91,NNW,337,2.5,6.7,60,0.00,,,0.00,WUHU21623XXSP,2013-02-01 21:15:00,
2013-02-01 15:20:00,-5.8,-16.2,29.92,NW,315,1.9,6.3,60,0.00,,,0.00,WUHU21623XXSP,2013-02-01 21:20:00,
2013-02-01 15:25:00,-6.0,-16.4,29.91,WNW,292,2.2,6.3,60,0.00,,,0.00,WUHU21623XXSP,2013-02-01 21:25:00,
2013-02-01 15:30:00,-5.6,-16.1,29.92,NW,304,1.5,3.4,60,0.00,,,0.00,WUHU21623XXSP,2013-02-01 21:30:00,
2013-02-01 15:35:00,-6.0,-16.4,29.91,WNW,292,6.3,6.3,60,0.00,,,0.00,WUHU21623XXSP,2013-02-01 21:35:00,
2013-02-01 15:40:00,-5.8,-15.9,29.92,WNW,292,0.9,6.3,61,0.00,,,0.00,WUHU21623XXSP,2013-02-01 21:40:00,
2013-02-01 15:46:00,-6.0,-16.1,29.91,WNW,292,1.1,4.5,61,0.00,,,0.00,WUHU21623XXSP,2013-02-01 21:46:00,
2013-02-01 15:51:00,-6.0,-16.4,29.92,WNW,292,0.7,2.7,60,0.00,,,0.00,WUHU21623XXSP,2013-02-01 21:51:00,
2013-02-01 15:56:00,-6.0,-16.4,29.92,West,270,1.8,4.5,60,0.00,,,0.00,WUHU21623XXSP,2013-02-01 21:56:00,
2013-02-01 16:01:00,-6.0,-15.8,29.92,West,270,0.3,4.5,62,0.00,,,0.00,WUHU21623XXSP,2013-02-01 22:01:00,
2013-02-01 16:06:00,-6.2,-16.3,29.92,West,270,2.7,3.4,61,0.00,,,0.00,WUHU21623XXSP,2013-02-01 22:06:00,
2013-02-01 16:11:00,-6.5,-16.6,29.92,West,270,2.5,2.7,61,0.00,,,0.00,WUHU21623XXSP,2013-02-01 22:11:00,
2013-02-01 16:16:00,-6.2,-16.0,29.92,West,270,0.7,2.5,62,0.00,,,0.00,WUHU21623XXSP,2013-02-01 22:16:00,
2013-02-01 16:21:00,-6.5,-16.6,29.92,West,270,1.3,3.6,61,0.00,,,0.00,WUHU21623XXSP,2013-02-01 22:21:00,
2013-02-01 16:26:00,-6.5,-16.3,29.92,West,270,1.1,3.6,62,0.00,,,0.00,WUHU21623XXSP,2013-02-01 22:26:00,
2013-02-01 16:31:00,-6.7,-16.1,29.91,West,270,2.0,2.9,63,0.00,,,0.00,WUHU21623XXSP,2013-02-01 22:31:00,
2013-02-01 16:36:00,-6.9,-16.6,29.91,West,270,1.0,2.7,62,0.00,,,0.00,WUHU21623XXSP,2013-02-01 22:36:00,
2013-02-01 16:41:00,-6.7,-16.1,29.91,West,270,0.7,2.5,63,0.00,,,0.00,WUHU21623XXSP,2013-02-01 22:41:00,
2013-02-01 16:46:00,-6.7,-16.1,29.91,West,270,0.6,1.8,63,0.00,,,0.00,WUHU21623XXSP,2013-02-01 22:46:00,
2013-02-01 16:51:00,-6.9,-16.3,29.91,West,270,0.9,2.0,63,0.00,,,0.00,WUHU21623XXSP,2013-02-01 22:51:00,
2013-02-01 16:56:00,-6.5,-16.0,29.91,West,270,0.3,2.0,63,0.00,,,0.00,WUHU21623XXSP,2013-02-01 22:56:00,
2013-02-01 17:01:00,-6.7,-15.8,29.91,West,270,0.5,1.1,64,0.00,,,0.00,WUHU21623XXSP,2013-02-01 23:01:00,
2013-02-01 17:06:00,-6.7,-16.1,29.91,West,270,0.0,0.9,63,0.00,,,0.00,WUHU21623XXSP,2013-02-01 23:06:00,
2013-02-01 17:11:00,-6.9,-16.0,29.91,West,270,2.2,2.7,64,0.00,,,0.00,WUHU21623XXSP,2013-02-01 23:11:00,
2013-02-01 17:16:00,-6.7,-15.8,29.91,West,270,1.1,2.7,64,0.00,,,0.00,WUHU21623XXSP,2013-02-01 23:16:00,
2013-02-01 17:21:00,-6.7,-15.8,29.91,West,270,0.9,1.8,64,0.00,,,0.00,WUHU21623XXSP,2013-02-01 23:21:00,
2013-02-01 17:26:00,-6.7,-15.5,29.91,West,270,0.0,1.6,65,0.00,,,0.00,WUHU21623XXSP,2013-02-01 23:26:00,
2013-02-01 17:31:00,-6.9,-15.7,29.91,West,270,0.7,1.3,65,0.00,,,0.00,WUHU21623XXSP,2013-02-01 23:31:00,
2013-02-01 17:36:00,-6.5,-15.4,29.91,West,270,0.8,1.3,65,0.00,,,0.00,WUHU21623XXSP,2013-02-01 23:36:00,
2013-02-01 17:41:00,-6.7,-15.8,29.91,West,270,0.1,1.3,64,0.00,,,0.00,WUHU21623XXSP,2013-02-01 23:41:00,
2013-02-01 17:46:00,-6.7,-15.8,29.90,West,270,0.0,1.3,64,0.00,,,0.00,WUHU21623XXSP,2013-02-01 23:46:00,
2013-02-01 17:51:00,-6.5,-15.4,29.91,West,270,0.2,1.1,65,0.00,,,0.00,WUHU21623XXSP,2013-02-01 23:51:00,
2013-02-01 17:56:00,-6.5,-15.4,29.91,West,270,0.0,1.1,65,0.00,,,0.00,WUHU21623XXSP,2013-02-01 23:56:00,
2013-02-01 18:01:00,-6.5,-15.4,29.91,West,270,0.0,0.9,65,0.00,,,0.00,WUHU21623XXSP,2013-02-02 00:01:00,
2013-02-01 18:06:00,-6.7,-15.5,29.91,West,270,0.0,0.0,65,0.00,,,0.00,WUHU21623XXSP,2013-02-02 00:06:00,
2013-02-01 18:11:00,-7.1,-16.1,29.91,West,270,0.2,0.9,64,0.00,,,0.00,WUHU21623XXSP,2013-02-02 00:11:00,
2013-02-01 18:16:00,-6.9,-15.4,29.91,West,270,0.0,0.9,66,0.00,,,0.00,WUHU21623XXSP,2013-02-02 00:16:00,
2013-02-01 18:21:00,-6.7,-15.5,29.91,West,270,0.0,0.0,65,0.00,,,0.00,WUHU21623XXSP,2013-02-02 00:21:00,
2013-02-01 18:26:00,-6.7,-15.2,29.91,West,270,0.0,0.0,66,0.00,,,0.00,WUHU21623XXSP,2013-02-02 00:26:00,
2013-02-01 18:31:00,-6.7,-15.5,29.91,West,270,0.0,0.0,65,0.00,,,0.00,WUHU21623XXSP,2013-02-02 00:31:00,
2013-02-01 18:36:00,-6.5,-14.7,29.91,West,270,0.0,0.0,67,0.00,,,0.00,WUHU21623XXSP,2013-02-02 00:36:00,
2013-02-01 18:41:00,-6.7,-15.5,29.91,West,270,0.0,0.0,65,0.00,,,0.00,WUHU21623XXSP,2013-02-02 00:41:00,
2013-02-01 18:46:00,-6.5,-15.1,29.91,West,270,0.0,0.0,66,0.00,,,0.00,WUHU21623XXSP,2013-02-02 00:46:00,
2013-02-01 18:51:00,-6.9,-15.4,29.91,West,270,0.0,0.0,66,0.00,,,0.00,WUHU21623XXSP,2013-02-02 00:51:00,
2013-02-01 18:56:00,-7.4,-15.9,29.91,West,270,0.0,0.0,66,0.00,,,0.00,WUHU21623XXSP,2013-02-02 00:56:00,
2013-02-01 19:01:00,-8.0,-16.1,29.91,West,270,0.0,0.0,67,0.00,,,0.00,WUHU21623XXSP,2013-02-02 01:01:00,
2013-02-01 19:06:00,-8.3,-16.4,29.91,West,270,0.0,0.0,67,0.00,,,0.00,WUHU21623XXSP,2013-02-02 01:06:00,
2013-02-01 19:11:00,-8.5,-16.3,29.91,West,270,0.0,0.0,68,0.00,,,0.00,WUHU21623XXSP,2013-02-02 01:11:00,
2013-02-01 19:16:00,-8.7,-16.5,29.91,West,270,0.0,0.0,68,0.00,,,0.00,WUHU21623XXSP,2013-02-02 01:16:00,
2013-02-01 19:21:00,-8.9,-17.0,29.90,West,270,0.0,0.0,67,0.00,,,0.00,WUHU21623XXSP,2013-02-02 01:21:00,
2013-02-01 19:26:00,-9.0,-16.9,29.91,West,270,0.0,0.0,68,0.00,,,0.00,WUHU21623XXSP,2013-02-02 01:26:00,
2013-02-01 19:31:00,-9.4,-17.2,29.91,West,270,0.0,0.0,68,0.00,,,0.00,WUHU21623XXSP,2013-02-02 01:31:00,
2013-02-01 19:36:00,-9.6,-17.4,29.90,West,270,0.0,0.0,68,0.00,,,0.00,WUHU21623XXSP,2013-02-02 01:36:00,
2013-02-01 19:41:00,-9.8,-17.3,29.91,West,270,0.0,0.0,69,0.00,,,0.00,WUHU21623XXSP,2013-02-02 01:41:00,
2013-02-01 19:46:00,-9.8,-17.3,29.90,West,270,0.0,0.0,69,0.00,,,0.00,WUHU21623XXSP,2013-02-02 01:46:00,
2013-02-01 19:51:00,-10.1,-17.3,29.91,West,270,0.0,0.0,70,0.00,,,0.00,WUHU21623XXSP,2013-02-02 01:51:00,
2013-02-01 19:56:00,-10.3,-17.5,29.91,West,270,0.0,0.0,70,0.00,,,0.00,WUHU21623XXSP,2013-02-02 01:56:00,
2013-02-01 20:02:00,-9.9,-17.1,29.91,West,270,0.0,0.0,70,0.00,,,0.00,WUHU21623XXSP,2013-02-02 02:02:00,
2013-02-01 20:07:00,-10.1,-17.1,29.91,West,270,0.0,0.0,71,0.00,,,0.00,WUHU21623XXSP,2013-02-02 02:07:00,
2013-02-01 20:12:00,-9.8,-16.7,29.91,West,270,0.0,0.0,71,0.00,,,0.00,WUHU21623XXSP,2013-02-02 02:12:00,
2013-02-01 20:17:00,-10.5,-17.7,29.91,West,270,0.0,0.0,70,0.00,,,0.00,WUHU21623XXSP,2013-02-02 02:17:00,
2013-02-01 20:22:00,-11.0,-18.2,29.91,West,270,0.0,0.0,70,0.00,,,0.00,WUHU21623XXSP,2013-02-02 02:22:00,
2013-02-01 20:27:00,-11.4,-18.6,29.91,West,270,0.0,0.0,70,0.00,,,0.00,WUHU21623XXSP,2013-02-02 02:27:00,
2013-02-01 20:32:00,-11.4,-18.3,29.91,West,270,0.0,0.0,71,0.00,,,0.00,WUHU21623XXSP,2013-02-02 02:32:00,
2013-02-01 20:37:00,-11.4,-18.3,29.91,West,270,0.0,0.0,71,0.00,,,0.00,WUHU21623XXSP,2013-02-02 02:37:00,
2013-02-01 20:42:00,-10.8,-18.0,29.91,West,270,0.0,0.0,70,0.00,,,0.00,WUHU21623XXSP,2013-02-02 02:42:00,
2013-02-01 20:47:00,-11.4,-18.6,29.92,West,270,0.0,0.0,70,0.00,,,0.00,WUHU21623XXSP,2013-02-02 02:47:00,
2013-02-01 20:52:00,-11.4,-18.3,29.92,West,270,0.0,0.0,71,0.00,,,0.00,WUHU21623XXSP,2013-02-02 02:52:00,
2013-02-01 20:57:00,-11.9,-18.8,29.92,West,270,0.0,0.0,71,0.00,,,0.00,WUHU21623XXSP,2013-02-02 02:57:00,
2013-02-01 21:02:00,-11.6,-18.2,29.92,West,270,0.0,0.0,72,0.00,,,0.00,WUHU21623XXSP,2013-02-02 03:02:00,
2013-02-01 21:07:00,-11.4,-18.3,29.92,West,270,0.0,0.0,71,0.00,,,0.00,WUHU21623XXSP,2013-02-02 03:07:00,
2013-02-01 21:12:00,-12.1,-18.7,29.92,West,270,0.0,0.0,72,0.00,,,0.00,WUHU21623XXSP,2013-02-02 03:12:00,
2013-02-01 21:17:00,-12.3,-18.9,29.92,West,270,0.0,0.0,72,0.00,,,0.00,WUHU21623XXSP,2013-02-02 03:17:00,
2013-02-01 21:22:00,-12.5,-18.8,29.92,West,270,0.0,0.0,73,0.00,,,0.00,WUHU21623XXSP,2013-02-02 03:22:00,
2013-02-01 21:27:00,-12.5,-18.8,29.92,West,270,0.0,0.0,73,0.00,,,0.00,WUHU21623XXSP,2013-02-02 03:27:00,
2013-02-01 21:32:00,-12.6,-18.9,29.92,West,270,0.0,0.0,73,0.00,,,0.00,WUHU21623XXSP,2013-02-02 03:32:00,
2013-02-01 21:37:00,-12.5,-18.8,29.91,West,270,0.0,0.0,73,0.00,,,0.00,WUHU21623XXSP,2013-02-02 03:37:00,
2013-02-01 21:42:00,-12.5,-19.0,29.91,West,270,0.0,0.0,72,0.00,,,0.00,WUHU21623XXSP,2013-02-02 03:42:00,
2013-02-01 21:47:00,-12.5,-19.0,29.92,West,270,0.0,0.0,72,0.00,,,0.00,WUHU21623XXSP,2013-02-02 03:47:00,
2013-02-01 21:52:00,-13.5,-19.8,29.92,West,270,0.0,0.0,73,0.00,,,0.00,WUHU21623XXSP,2013-02-02 03:52:00,
2013-02-01 21:57:00,-13.9,-19.9,29.92,West,270,0.0,0.0,74,0.00,,,0.00,WUHU21623XXSP,2013-02-02 03:57:00,
2013-02-01 22:02:00,-14.3,-20.5,29.92,West,270,0.0,0.0,73,0.00,,,0.00,WUHU21623XXSP,2013-02-02 04:02:00,
2013-02-01 22:07:00,-14.6,-20.9,29.92,West,270,0.0,0.0,73,0.00,,,0.00,WUHU21623XXSP,2013-02-02 04:07:00,
2013-02-01 22:12:00,-14.6,-20.6,29.92,West,270,0.0,0.0,74,0.00,,,0.00,WUHU21623XXSP,2013-02-02 04:12:00,
2013-02-01 22:17:00,-15.0,-21.2,29.92,West,270,0.0,0.0,73,0.00,,,0.00,WUHU21623XXSP,2013-02-02 04:17:00,
2013-02-01 22:22:00,-15.7,-22.0,29.92,West,270,0.0,0.0,73,0.00,,,0.00,WUHU21623XXSP,2013-02-02 04:22:00,
2013-02-01 22:27:00,-14.4,-20.5,29.92,West,270,0.0,0.0,74,0.00,,,0.00,WUHU21623XXSP,2013-02-02 04:27:00,
2013-02-01 22:32:00,-15.2,-21.4,29.92,West,270,0.0,0.0,73,0.00,,,0.00,WUHU21623XXSP,2013-02-02 04:32:00,
2013-02-01 22:37:00,-15.0,-21.0,29.92,West,270,0.0,0.0,74,0.00,,,0.00,WUHU21623XXSP,2013-02-02 04:37:00,
2013-02-01 22:42:00,-15.9,-22.2,29.92,West,270,0.0,0.0,72,0.00,,,0.00,WUHU21623XXSP,2013-02-02 04:42:00,
2013-02-01 22:47:00,-15.7,-22.0,29.92,West,270,0.0,0.0,73,0.00,,,0.00,WUHU21623XXSP,2013-02-02 04:47:00,
2013-02-01 22:52:00,-15.7,-22.0,29.92,West,270,0.0,0.0,73,0.00,,,0.00,WUHU21623XXSP,2013-02-02 04:52:00,
2013-02-01 22:57:00,-14.6,-20.6,29.92,West,270,0.0,0.0,74,0.00,,,0.00,WUHU21623XXSP,2013-02-02 04:57:00,
2013-02-01 23:00:00,-14.4,-20.5,29.92,West,270,0.0,0.0,74,0.00,,,0.00,WUHU21623XXSP,2013-02-02 05:00:00,
2013-02-01 23:05:00,-15.0,-21.2,29.92,West,270,0.0,0.0,73,0.00,,,0.00,WUHU21623XXSP,2013-02-02 05:05:00,
2013-02-01 23:10:00,-15.7,-22.0,29.92,West,270,0.0,0.0,73,0.00,,,0.00,WUHU21623XXSP,2013-02-02 05:10:00,
2013-02-01 23:15:00,-15.2,-21.2,29.92,West,270,0.0,0.0,74,0.00,,,0.00,WUHU21623XXSP,2013-02-02 05:15:00,
2013-02-01 23:20:00,-15.2,-21.2,29.92,West,270,0.0,0.0,74,0.00,,,0.00,WUHU21623XXSP,2013-02-02 05:20:00,
2013-02-01 23:25:00,-15.5,-21.8,29.92,West,270,0.0,0.0,73,0.00,,,0.00,WUHU21623XXSP,2013-02-02 05:25:00,
2013-02-01 23:30:00,-15.7,-22.0,29.92,West,270,0.0,0.0,73,0.00,,,0.00,WUHU21623XXSP,2013-02-02 05:30:00,
2013-02-01 23:35:00,-15.5,-21.5,29.93,West,270,0.0,0.0,74,0.00,,,0.00,WUHU21623XXSP,2013-02-02 05:35:00,
2013-02-01 23:40:00,-15.5,-21.8,29.93,West,270,0.0,0.0,73,0.00,,,0.00,WUHU21623XXSP,2013-02-02 05:40:00,
2013-02-01 23:45:00,-16.1,-22.4,29.93,West,270,0.0,0.0,72,0.00,,,0.00,WUHU21623XXSP,2013-02-02 05:45:00,
2013-02-01 23:50:00,-16.6,-22.6,29.93,West,270,0.0,0.0,73,0.00,,,0.00,WUHU21623XXSP,2013-02-02 05:50:00,
2013-02-01 23:55:00,-16.1,-21.9,29.93,West,270,0.0,0.0,74,0.00,,,0.00,WUHU21623XXSP,2013-02-02 05:55:00,